Northport, AL

10:36 AM CST on January 20, 2017 (GMT -0600)
Tuscaloosa Municipal

Weather History for KTCL - October, 2012

Change the Weather History Date:

Friday, October 5, 2012

  Actual Average Record
Temperature  
Mean Temperature 71 °F 68 °F  
Max Temperature 84 °F 81 °F 97 °F (1954)
Min Temperature 58 °F 56 °F 36 °F (1968)
Degree Days  
Heating Degree Days 0 2  
Month to date heating degree days 0 6  
Since 1 July heating degree days 1 13  
Cooling Degree Days 4    
Growing Degree Days 20 (Base 50)    
Moisture  
Dew Point 60 °F    
Average Humidity 73    
Maximum Humidity 100    
Minimum Humidity 46    
Precipitation  
Precipitation 0.00 in 0.12 in 1.84 in (1960)
Month to date precipitation 0.03 0.60  
Year to date precipitation 37.02 39.99  
Sea Level Pressure  
Sea Level Pressure 30.11 in    
Wind  
Wind Speed 2 mph (SSW)    
Max Wind Speed 9 mph    
Max Gust Speed 13 mph    
Visibility 7 miles    
Events Fog    
T = Trace of Precipitation, MM = Missing Value Source: NWS Daily Summary

Daily Weather History Graph

Daily Weather History Graph

Search for Another Location

Airport or City:

Trip Planner

Search our weather history database for the weather conditions in past years. The results will help you decide how hot, cold, wet, or windy it might be!

Date:

Astronomy

Oct. 05, 2012 Rise Set
Actual Time 6:47 AM CDT 6:28 PM CDT
Civil Twilight 6:23 AM CDT 6:53 PM CDT
Nautical Twilight 5:54 AM CDT 7:22 PM CDT
Astronomical Twilight 5:25 AM CDT 7:51 PM CDT
Moon 10:06 PM CDT (10/5) 11:41 AM CDT (10/5)
Length of Visible Light 12h 30m
Length of Day
11h 41m
Waning Gibbous, 74% of the Moon is Illuminated
Oct 5
Waning Gibbous
Oct 8
Last Quarter
Oct 15
New
Oct 21
First Quarter
Oct 29
Full

Hourly Weather History & Observations

Time (CDT) Temp. Heat Index Dew Point Humidity Pressure Visibility Wind Dir Wind Speed Gust Speed Precip Events Conditions
12:53 AM 62.1 °F - 61.0 °F 96% 30.19 in 6.0 mi Calm Calm - N/A   Clear
1:53 AM 61.0 °F - 60.1 °F 97% 30.19 in 5.0 mi Calm Calm - N/A   Clear
3:53 AM 60.1 °F - 57.9 °F 93% 30.17 in 6.0 mi Calm Calm - N/A   Clear
4:53 AM 60.1 °F - 57.9 °F 93% 30.18 in 5.0 mi Calm Calm - N/A   Clear
5:53 AM 59.0 °F - 57.9 °F 96% 30.18 in 5.0 mi Calm Calm - N/A   Clear
6:47 AM 57.2 °F - 55.4 °F 94% 30.19 in 1.0 mi Calm Calm - N/A   Clear
6:51 AM 57.2 °F - 55.4 °F 94% 30.19 in 0.2 mi Calm Calm - N/A Fog Fog
6:53 AM 57.9 °F - 55.9 °F 93% 30.19 in 6.0 mi Calm Calm - N/A   Clear
7:53 AM 62.1 °F - 59.0 °F 90% 30.18 in 5.0 mi Calm Calm - N/A   Clear
8:53 AM 68.0 °F - 62.1 °F 81% 30.19 in 6.0 mi Calm Calm - N/A   Haze
10:53 AM 77.0 °F - 61.0 °F 58% 30.17 in 9.0 mi South 3.5 mph - N/A   Clear
12:53 PM 82.0 °F 82.4 °F 60.1 °F 47% 30.11 in 10.0 mi Calm Calm - N/A   Clear
1:53 PM 82.0 °F 82.1 °F 59.0 °F 45% 30.08 in 10.0 mi SSW 4.6 mph - N/A   Clear
2:53 PM 82.9 °F 83.3 °F 61.0 °F 47% 30.05 in 10.0 mi South 8.1 mph - N/A   Clear
3:53 PM 82.9 °F 82.8 °F 59.0 °F 44% 30.04 in 10.0 mi SW 6.9 mph - N/A   Clear
4:53 PM 82.0 °F 82.4 °F 60.1 °F 47% 30.02 in 10.0 mi South 6.9 mph - N/A   Clear
5:53 PM 80.1 °F 81.2 °F 62.1 °F 54% 30.01 in 10.0 mi Calm Calm - N/A   Clear
6:53 PM 72.0 °F - 64.9 °F 78% 30.01 in 10.0 mi Calm Calm - N/A   Clear
7:53 PM 69.1 °F - 64.0 °F 84% 30.01 in 10.0 mi Calm Calm - N/A   Clear
8:53 PM 66.9 °F - 63.0 °F 87% 30.02 in 8.0 mi Calm Calm - N/A   Clear
9:53 PM 64.9 °F - 63.0 °F 93% 30.03 in 5.0 mi Calm Calm - N/A   Clear
10:53 PM 64.0 °F - 62.1 °F 93% 30.05 in 8.0 mi Calm Calm - N/A   Clear
11:53 PM 63.0 °F - 62.1 °F 97% 30.03 in 4.0 mi Calm Calm - N/A   Clear